Regional Weather Roundup
Issued by NWS

Home | Current Version | Previous Version | Graphics & Text | Print | Product List | Glossary On
Versions: 1 2 3 4 5 6 7 8 9 10 11 12 13 14 15 16 17 18 19 20 21 22 23 24 25 26 27 28 29 30 31 32 33 34 35 36 37 38 39 40 41 42 43 44 45 46 47 48 49 50
000
ASUS43 KBIS 261102
RWRND

NORTH DAKOTA REGIONAL WEATHER ROUNDUP
NATIONAL WEATHER SERVICE BISMARCK ND
600 AM CDT TUE JUL 26 2016

NOTE: "FAIR" INDICATES FEW OR NO CLOUDS BELOW 12,000 FEET WITH NO
SIGNIFICANT WEATHER AND/OR OBSTRUCTIONS TO VISIBILITY.


NDZ001>003-009>011-017-261200-
NORTHWEST NORTH DAKOTA

CITY           SKY/WX    TMP DP  RH WIND       PRES   REMARKS
WILLISTON      CLEAR     63  59  87 N8        30.02S
MINOT          CLEAR     63  59  87 NW6       30.00R
MINOT AFB      CLEAR     62  60  91 N5        29.99F
$$

NDZ018>021-031>035-040>046-261200-
SOUTHWEST NORTH DAKOTA

CITY           SKY/WX    TMP DP  RH WIND       PRES   REMARKS
BISMARCK       CLEAR     70  68  93 NE7       29.95S
DICKINSON      PTCLDY    62  61  96 NE7       29.98F FOG
GARRISON         N/A     61  61 100 NE3       29.99F
HETTINGER ARPT CLEAR     68  64  87 NE10      30.00S
$$

NDZ004>008-012>016-024-026-027-054-261200-
NORTHEAST NORTH DAKOTA

CITY           SKY/WX    TMP DP  RH WIND       PRES   REMARKS
GRAND FORKS    PTCLDY    65  62  90 N6        29.92S
GRND FRKS AFB  CLEAR     64  64  99 N5        29.94S
DEVILS LAKE    PTCLDY    63  62  97 N6        29.99S
$$

NDZ022-023-025-028>030-036>039-047>053-261200-
SOUTHEAST NORTH DAKOTA

CITY           SKY/WX    TMP DP  RH WIND       PRES   REMARKS
FARGO          CLOUDY    69  62  78 SW8       29.92R
JAMESTOWN      CLOUDY    69  68  96 W5        29.97R
$$





USA.gov is the U.S. government's official web portal to all federal, state and local government web resources and services.